Погода в Лебедевке

Россия / Тюменская область     56°47′24″N   66°57′24″E
темп.,
°C
ветер,
м/с
пор.,
м/с
влажн.,
%
обл.,
%
осадки,
мм/ч
давл.,
гПа
погр.,
м
21 января, пт
пт2123:00−12ю41090100 0.0 1025222
02:00−12ююз41189100 0.0 1024272
05:00−12ююз41188100 0.0 1025294
08:00−14ю389399 0.0 1024179
11:00−13ююз38895 0.0 1025200
14:00−11ююз36845 0.0 1025226
17:00−16ю369593 0.0 102683
20:00−16ююз379395 0.0 102699
22 января, сб
сб2223:00−14юз379389 0.0 1027134
02:00−15юз379495 0.0 1028108
05:00−16юз2695100 0.0 102982
08:00−16юз3695100 0.0 102994
11:00−12юз24916 0.0 1030116
14:00−9зюз238799 0.0 1031186
17:00−15юз229732 0.0 103229
20:00−17юз229830 0.0 103315
23 января, вс
вс2323:00−18ююз229864 0.0 103414
02:00−19юз129935 0.0 103511
05:00−20юз229973 0.0 103615
08:00−20юз1110098 0.0 10379
11:00−13юз119029 0.0 103759
14:00−9з128641 0.0 1038167
17:00−15зюз119780 0.0 10399
20:00−18зюз229871 0.0 104112
24 января, пн
пн2423:00−19ююз229433 0.0 104112
02:00−20зюз119610 0.0 10429
05:00−20юз2296100 0.0 104222
08:00−19юз239586 0.0 104347
11:00−13юз248433 0.0 104293
14:00−10юз3579100 0.0 1042206
17:00−12юз2890100 0.0 1041166
20:00−12ююз3988100 0.0 1040185
25 января, вт
вт2523:00−12ююз41085100 0.0 1038238
02:00−11ююз41283100 0.0 1037300
05:00−12ююз41284100 0.0 1035304
08:00−12юз4986100 0.0 1033279
11:00−10юз3793100 0.7 1032257
14:00−8зюз3691100 0.2 1030355
17:00−9юз3696100 0.3 1029226
20:00−10зюз379787 0.2 1028171